CW9443 Weather Reports


Display with metric or nautical units.
time (UTC)temp
F
wind
direction
speed
MPH
gust
MPH
rain 1hr
in
rain 24hr
in
rain mn
in
humidity
%
barometer
mb
20260903151500 64 237 0.0 0.0 0.00 0.00 0.00 83 1012.6
20260903144557 61 237 0.0 0.0 0.00 0.00 0.00 89 1012.5
20260903143049 60 237 0.0 0.0 0.00 0.00 0.00 92 1012.4
20260903141553 58 237 0.0 0.0 0.00 0.00 0.00 92 1012.3
20260903140049 58 237 0.0 0.0 0.00 0.00 0.00 91 1012.2
20260903134548 58 237 0.0 0.0 0.00 0.00 0.00 91 1012.2
20260903133046 59 237 0.0 0.0 0.00 0.00 0.00 92 1012.2
20260903131545 59 237 0.0 0.0 0.00 0.00 0.00 92 1012.1
20260903130109 59 237 0.0 0.0 0.00 0.00 0.00 92 1012.0
20260903124546 59 237 0.0 0.0 0.00 0.00 0.00 92 1012.0
20260903123044 59 237 0.0 0.0 0.00 0.00 0.00 91 1011.9
20260903121547 59 237 0.0 0.0 0.00 0.00 0.00 91 1012.1
20260903120041 59 237 0.0 0.0 0.00 0.00 0.00 91 1012.3
20260903114540 59 237 0.0 0.0 0.00 0.00 0.00 91 1012.2
20260903113039 59 237 0.0 0.0 0.00 0.00 0.00 91 1012.3
20260903111536 59 237 0.0 0.0 0.00 0.00 0.00 90 1012.4
20260903110106 59 237 0.0 0.0 0.00 0.00 0.00 89 1012.4
20260903104532 60 237 0.0 0.0 0.00 0.00 0.00 89 1012.4
20260903103033 60 237 0.0 0.0 0.00 0.00 0.00 89 1012.4
20260903101531 60 237 0.0 0.0 0.00 0.00 0.00 89 1012.5
20260903100032 60 237 0.0 0.0 0.00 0.00 0.00 88 1012.4
20260903094546 60 237 0.0 0.0 0.00 0.00 0.00 88 1012.6
20260903093033 60 237 0.0 0.0 0.00 0.00 0.00 88 1012.8
20260903091529 61 237 0.0 0.0 0.00 0.00 0.00 86 1012.8
20260903090027 61 237 0.0 0.0 0.00 0.00 0.00 86 1012.9
20260903084531 61 237 0.0 0.0 0.00 0.00 0.00 87 1013.0
20260903083022 61 237 0.0 0.0 0.00 0.00 0.00 88 1013.1
20260903081534 61 237 0.0 0.0 0.00 0.00 0.00 88 1013.1
20260903080024 61 237 0.0 0.0 0.00 0.00 0.00 88 1013.0
20260903074521 61 237 0.0 0.0 0.00 0.00 0.00 87 1013.2
20260903073019 62 237 0.0 0.0 0.00 0.00 0.00 88 1013.1
20260903071518 62 237 0.0 0.0 0.00 0.00 0.00 88 1013.1
20260903070024 62 237 0.0 0.0 0.00 0.00 0.00 88 1013.0
20260903064519 62 237 0.0 0.0 0.00 0.00 0.00 87 1013.0
20260903063017 62 237 0.0 0.0 0.00 0.00 0.00 87 1012.9
20260903061519 62 237 0.0 0.0 0.00 0.00 0.00 86 1012.9
20260903060019 62 237 0.0 0.0 0.00 0.00 0.00 86 1012.9
20260903054536 63 237 0.0 0.0 0.00 0.00 0.00 86 1013.0
20260903053014 63 237 0.0 0.0 0.00 0.00 0.00 86 1013.0
20260903051513 63 237 0.0 0.0 0.00 0.00 0.00 85 1013.1
20260903050013 64 237 0.0 0.0 0.00 0.00 0.00 85 1013.2
20260903044512 64 237 0.0 0.0 0.00 0.00 0.00 83 1013.3
20260903043010 64 237 0.0 0.0 0.00 0.00 0.00 83 1013.3
20260903041508 64 237 0.0 0.0 0.00 0.00 0.00 82 1013.3
20260903040009 65 237 0.0 0.0 0.00 0.00 0.00 82 1013.2
20260903034510 65 237 0.0 0.0 0.00 0.00 0.00 81 1013.1
20260903033002 65 237 0.0 0.0 0.00 0.00 0.00 79 1012.9
20260903031504 67 237 0.0 0.0 0.00 0.00 0.00 76 1012.9
20260903030006 68 237 0.0 0.0 0.00 0.00 0.00 70 1012.8
20260903024504 69 237 0.0 0.0 0.00 0.00 0.00 63 1012.8
20260903023058 70 237 0.0 0.0 0.00 0.00 0.00 58 1012.7
20260903021608 71 237 0.0 0.0 0.00 0.00 0.00 55 1012.6
20260903020058 71 237 0.0 0.0 0.00 0.00 0.00 53 1012.6
20260903014558 72 237 0.0 0.0 0.00 0.00 0.00 52 1012.7
20260903013104 74 233 0.0 0.0 0.00 0.00 0.00 49 1012.8
20260903011554 75 232 0.0 0.0 0.00 0.00 0.00 49 1012.8
20260903010109 76 229 0.0 0.0 0.00 0.00 0.00 49 1012.7
20260903004558 76 226 0.0 0.0 0.00 0.00 0.00 48 1012.7
20260903003050 76 219 0.0 0.0 0.00 0.00 0.00 47 1012.8
20260903001552 77 235 0.0 0.0 0.00 0.00 0.00 48 1012.8
20260903000053 77 248 1.0 0.0 0.00 0.00 0.00 46 1012.7
20260902234549 78 277 1.0 0.0 0.00 0.00 0.00 41 1012.8
20260902233044 78 238 1.0 0.0 0.00 0.00 0.00 41 1012.9
20260902231549 78 242 1.0 0.0 0.00 0.00 0.00 42 1012.9
20260902230042 79 238 1.0 0.0 0.00 0.00 0.00 43 1013.0
20260902224540 79 228 1.0 0.0 0.00 0.00 0.00 45 1013.1
20260902223038 79 215 1.0 0.0 0.00 0.00 0.00 48 1013.2
20260902221534 78 222 2.0 0.0 0.00 0.00 0.00 49 1013.4
20260902220034 78 252 3.0 0.0 0.00 0.00 0.00 51 1013.4
20260902214531 78 205 3.0 0.0 0.00 0.00 0.00 51 1013.5
20260902213026 78 244 3.0 0.0 0.00 0.00 0.00 52 1013.7
20260902211525 79 233 3.0 0.0 0.00 0.00 0.00 52 1013.7
20260902210033 78 215 2.0 0.0 0.00 0.00 0.00 53 1013.9
20260902204536 78 229 3.0 0.0 0.00 0.00 0.00 54 1014.0
20260902203022 77 220 4.0 0.0 0.00 0.00 0.00 55 1014.1
20260902201528 78 230 2.0 0.0 0.00 0.00 0.00 54 1014.2
20260902200022 78 256 2.0 0.0 0.00 0.00 0.00 54 1014.2
20260902194519 78 221 3.0 0.0 0.00 0.00 0.00 56 1014.5
20260902193018 78 237 2.0 0.0 0.00 0.00 0.00 54 1014.5
20260902191519 77 219 2.0 0.0 0.00 0.00 0.00 54 1014.7
20260902190016 77 233 1.0 0.0 0.00 0.00 0.00 52 1014.7
20260902184512 77 229 1.0 0.0 0.00 0.00 0.00 52 1014.8
20260902183012 77 232 1.0 0.0 0.00 0.00 0.00 50 1014.8
20260902181509 76 233 1.0 0.0 0.00 0.00 0.00 51 1014.8
20260902180008 75 224 1.0 0.0 0.00 0.00 0.00 54 1014.9
20260902174501 74 223 1.0 0.0 0.00 0.00 0.00 58 1015.0
20260902173102 73 230 0.0 0.0 0.00 0.00 0.00 60 1014.9
20260902171608 73 230 0.0 0.0 0.00 0.00 0.00 62 1014.8
20260902170053 72 230 0.0 0.0 0.00 0.00 0.00 64 1014.7
20260902164559 70 230 0.0 0.0 0.00 0.00 0.00 67 1014.8
20260902163052 70 230 0.0 0.0 0.00 0.00 0.00 68 1014.6
20260902161555 69 230 0.0 0.0 0.00 0.00 0.00 71 1014.5
20260902160044 67 230 0.0 0.0 0.00 0.00 0.00 72 1014.5
20260902154600 68 230 0.0 0.0 0.00 0.00 0.00 72 1014.7
20260902153040 66 230 0.0 0.0 0.00 0.00 0.00 77 1014.7